Location: Houhaj�rvi
(61.2833°N, 23.0000°E)
Time: 16:09:24
(UTC+00:00)

MetOp-B - Pass Details

Date: 27 February 2020
Orbit: 820 x 821 km, 98.7° (Epoch: 29 March)

Event Time Altitude Azimuth Distance (km) Brightness Sun altitude
Exits shadow 18:23:54 34° 133° (SE) 1,327 4.7 -19.5°
Maximum altitude 18:26:10 64° 64° (ENE) 910 4.1 -19.8°
Drops below altitude 10° 18:31:30 10° 344° (NNW) 2,434 7.1 -20.4°
Sets 18:33:52 0° 342° (NNW) 3,371 7.9 -20.6°
